Location: Columbia
(38.9520°N, 92.3340°W)
Time: 15:44:22
(UTC-05:00)

Daily predictions for brighter satellites

Satellite Brightness Start Highest point End
(mag) Time Altitude Azimuth Time Altitude Azimuth Time Altitude Azimuth
Cosmos 2237 Rocket 2.8 19:18:08 10° SSW 19:23:46 65° WNW 19:29:26 10° NNE
SAR-Lupe-1 4.2 19:24:22 10° SSE 19:27:48 50° ENE 19:31:16 10° N
ATLAS CENTAUR R/B 1.2 19:23:58 10° NNW 19:28:11 76° ENE 19:32:03 10° SE
Aureole 2 Rocket 3.1 19:24:35 10° S 19:28:52 55° ESE 19:33:07 10° NNE
Cosmos 1766 3.6 19:25:21 10° SSE 19:29:06 43° E 19:32:54 10° NNE
ATLAS 5 CENTAUR R/B 2.4 19:27:19 10° S 19:31:34 34° ESE 19:36:04 10° NE
Resurs 01 Rocket 2.4 19:28:35 10° SE 19:32:30 31° ENE 19:36:27 10° N
Okean 3 Rocket 3.6 19:28:08 10° N 19:32:40 66° E 19:37:11 10° SSE
HJ-1C 4.5 19:30:20 10° SE 19:33:08 25° ENE 19:35:59 10° NNE
Cosmos 1624 Rocket 4.0 19:27:56 10° NNW 19:33:09 72° ENE 19:38:19 10° SSE
USA 215 3.3 19:35:21 10° NE 19:41:52 68° SE 19:48:21 10° SW
SL-16 R/B 2.2 19:37:26 10° SSW 19:43:06 80° ESE 19:48:49 10° NNE
Cosmos 192 4.4 19:39:57 10° S 19:44:46 57° ESE 19:49:39 10° NNE
Meteor 1-29 3.8 19:42:32 10° NE 19:45:40 29° E 19:48:45 10° SSE
Cosmos 1953 2.9 19:46:31 10° SSE 19:50:08 34° E 19:53:45 10° NNE
Cosmos 1072 Rocket 4.4 19:48:06 10° S 19:54:11 77° E 20:00:17 10° N
Spot 1 4.2 19:49:36 10° SSE 19:54:22 67° ENE 19:58:53 10° N
Helios 1A 3.1 19:52:45 10° SSE 19:56:47 50° ENE 20:00:51 10° N
SeaSat 1 3.5 19:57:02 10° NE 20:00:56 23° ESE 20:04:48 10° SSE
Cosmos 1805 3.5 19:57:15 10° SSE 20:01:00 46° E 20:04:47 10° NNE
Cosmos 1452 Rocket 3.7 19:57:21 10° N 20:02:29 50° ENE 20:07:29 10° SE
H-2A R/B 3.9 20:01:10 20° ESE 20:02:30 25° ENE 20:05:43 10° NNE
METEOR-M 4.1 19:57:55 10° SSE 20:03:16 80° ENE 20:08:39 10° N
Cosmos 1544 3.8 20:00:36 10° SSE 20:03:55 31° E 20:07:16 10° NNE
Cosmos 1378 3.4 20:00:49 10° NNW 20:04:33 71° W 20:08:14 10° S
Meteor 1-28 Rocket 4.0 20:03:28 10° N 20:07:07 52° WNW 20:10:43 10° SSW
CZ-4B DEB 3.6 20:06:22 27° ESE 20:07:12 31° ENE 20:10:08 10° N
ALOS 2.6 20:04:17 11° SE 20:08:30 42° ENE 20:12:55 10° N
Cosmos 1513 Rocket 4.5 20:02:23 10° S 20:08:43 76° E 20:15:09 10° N
Cosmos 2278 Rocket 4.0 20:04:14 10° NW 20:09:12 32° WSW 20:14:09 10° SSW
OAO 3 Rocket 3.5 20:06:10 10° WSW 20:10:48 52° S 20:13:21 25° ESE
FENGYUN 3A 3.9 20:07:03 10° SE 20:12:10 48° ENE 20:17:20 10° N
Cosmos 2297 4.2 20:08:45 10° NNW 20:14:21 63° WSW 20:19:53 10° S
NOSS 3-2 (A) 3.8 20:08:25 10° SW 20:14:25 68° NW 20:21:01 10° NNE
Cosmos 724 4.3 20:08:42 10° SSW 20:14:29 62° ESE 20:20:27 10° NE
Meteor 2-12 Rocket 4.4 20:08:28 10° S 20:14:31 64° E 20:20:37 10° NNE
Cosmos 468 4.5 20:12:34 10° S 20:17:42 58° ESE 20:22:50 10° NNE
FREGAT/IRIS 4.4 20:17:46 10° SSW 20:20:37 34° W 20:23:29 10° NNW
CZ-4C R/B 4.3 20:16:58 10° W 20:21:25 25° NW 20:26:18 10° NNE
Cosmos 1470 4.4 20:24:32 19° NE 20:24:32 19° NE 20:25:57 10° NNE
Cosmos 1766 Rocket 3.6 20:20:29 10° N 20:24:51 78° W 20:29:11 10° S
Cosmos 1420 Rocket 4.3 20:20:28 10° N 20:25:33 45° ENE 20:27:35 31° ESE
Cosmos 1943 4.4 20:22:43 10° SSE 20:33:10 - NE 20:25:09 21° SE
Cosmos 2369 Rocket 3.3 20:23:36 10° N 20:28:13 25° NE 20:28:54 24° ENE
Cosmos 2034 Rocket 4.1 20:22:24 10° S 20:28:39 84° W 20:35:01 10° N
Cosmos 1603 3.6 20:24:37 10° SSW 20:30:19 73° ESE 20:36:04 10° NNE
Cosmos 1758 3.6 20:27:35 10° SSW 20:31:37 69° W 20:35:44 10° N
Cosmos 1943 Rocket 4.1 20:32:51 10° NNE 20:35:15 13° NE 20:35:15 13° NE
Cosmos 1269 Rocket 3.9 20:33:57 10° S 20:39:11 71° ESE 20:44:28 10° NNE
Spot 2 Rocket 4.4 20:36:16 10° S 20:41:07 48° W 20:46:00 10° NNW
GPS 2-04 Rocket1 4.1 20:39:07 10° SW 20:41:01 22° S 20:41:01 22° S
Helios 1B rocket 3.8 20:38:45 10° N 20:42:36 40° WNW 20:46:26 10° SW
Cosmos 1048 Rocket 3.9 20:38:15 10° S 20:43:31 66° ESE 20:48:44 10° NNE
Cosmos-2242 3.7 20:40:47 10° SSW 20:45:03 56° W 20:49:23 10° N
ASTEX 1 3.2 20:40:36 10° N 20:45:32 83° E 20:50:25 10° S
SL-8 R/B 3.6 20:44:31 10° SW 20:49:15 67° SE 20:49:42 63° ESE
CENTAUR R/B 2.6 20:45:51 10° S 20:51:33 49° ESE 20:53:12 40° ENE
Envisat 4.2 20:53:16 27° NE 20:53:16 27° NE 20:56:26 10° N
NOSS 3-2 (C) 4.4 20:46:24 10° WSW 20:52:16 47° NW 20:58:40 10° NNE
Cosmos 1674 3.0 20:48:49 10° N 20:51:57 54° NNE 20:51:57 54° NNE
Cosmos 1842 Rocket 3.4 20:55:05 57° S 20:55:57 87° E 21:00:19 10° N
Cosmos 1500 Rocket 3.4 20:54:39 10° N 20:59:06 84° E 20:59:06 84° E
ASTRO E2 4.4 20:55:56 10° WSW 20:58:31 24° SSW 20:58:31 24° SSW
Atlas Centaur 2 4.2 20:59:04 10° WSW 21:05:48 27° SSW 21:08:50 21° S
Resurs 01 Rocket 4.0 21:05:32 10° SW 21:08:59 22° W 21:12:28 10° NW
ATLAS 5 CENTAUR R/B 3.6 21:11:58 10° WSW 21:16:14 30° NW 21:20:48 10° NNE
USA 215 4.4 21:18:39 10° NE 21:24:35 39° NNW 21:30:31 10° W
ERS-1 Rocket 3.8 21:34:55 43° NNW 21:34:55 43° NNW 21:38:17 10° NNW
SeaSat 1 3.5 21:33:54 10° NNE 21:38:34 43° WNW 21:43:13 10° SW
Cosmos 1655 Rocket 4.2 21:36:50 10° N 21:42:01 64° N 21:42:01 64° N
Cosmos 2369 Rocket 3.6 22:07:03 10° NW 22:10:42 35° WNW 22:10:42 35° WNW
Cosmos 1943 Rocket 4.0 22:14:27 10° NNW 22:16:47 26° NNW 22:16:47 26° NNW
CENTAUR R/B 4.1 22:36:54 10° WSW 22:46:45 17° N 22:48:33 10° NNE
